Location: Newark
(25.6108°S, 54.5803°W)
Time: 21:19:35
(UTC+00:00)

Courier 1B - Pass Details

Date: 01 November 2020
Orbit: 962 x 1209 km, 28.3° (Epoch: 24 November)

Event Time Altitude Azimuth Distance (km) Brightness Sun altitude
Rises 05:05:10 0° 257° (WSW) 4,077 - -42.6°
Reaches altitude 10° 05:07:59 10° 257° (WSW) 3,132 - -42.2°
Maximum altitude 05:15:52 81° 343° (NNW) 1,227 - -41.2°
Exits shadow 05:21:59 18° 68° (ENE) 2,555 9.7 -40.3°
Drops below altitude 10° 05:23:44 10° 69° (ENE) 3,125 10.3 -40.1°
Sets 05:26:32 0° 70° (ENE) 4,069 11.0 -39.6°
